Time,TemperatureF,DewpointF,PressureIn,WindDirection,WindDirectionDegrees,WindSpeedMPH,WindSpeedGustMPH,Humidity,HourlyPrecipIn,Conditions,Clouds,dailyrainin,SoftwareType,DateUTC
2013-03-27 00:03:00,31.0,25.0,30.31,NW,304,0.0,0.0,79,0.00,,,0.00,,2013-03-27 04:03:00,
2013-03-27 00:13:00,31.0,25.0,30.31,NW,304,0.0,0.0,79,0.00,,,0.00,,2013-03-27 04:13:00,
2013-03-27 00:23:00,31.0,26.0,30.31,NW,304,0.0,0.0,81,0.00,,,0.00,,2013-03-27 04:23:00,
2013-03-27 00:33:00,31.0,26.0,30.32,NW,304,0.0,1.0,81,0.00,,,0.00,,2013-03-27 04:33:00,
2013-03-27 00:42:00,31.0,26.0,30.32,NW,304,0.0,1.0,81,0.00,,,0.00,,2013-03-27 04:42:00,
2013-03-27 00:53:00,31.0,26.0,30.32,NW,304,0.0,0.0,81,0.00,,,0.00,,2013-03-27 04:53:00,
2013-03-27 01:02:00,31.0,26.0,30.32,NW,304,0.0,0.0,81,0.00,,,0.00,,2013-03-27 05:02:00,
2013-03-27 01:12:00,31.0,26.0,30.32,NW,304,0.0,0.0,81,0.00,,,0.00,,2013-03-27 05:12:00,
2013-03-27 01:23:00,30.0,25.0,30.31,NW,304,0.0,0.0,81,0.00,,,0.00,,2013-03-27 05:23:00,
2013-03-27 01:33:00,31.0,26.0,30.32,NW,304,0.0,0.0,82,0.00,,,0.00,,2013-03-27 05:33:00,
2013-03-27 01:42:00,31.0,26.0,30.32,NW,304,0.0,0.0,82,0.00,,,0.00,,2013-03-27 05:42:00,
2013-03-27 01:53:00,31.0,26.0,30.31,NW,304,0.0,0.0,81,0.00,,,0.00,,2013-03-27 05:53:00,
2013-03-27 02:02:00,30.0,26.0,30.31,NW,304,0.0,0.0,84,0.00,,,0.00,,2013-03-27 06:02:00,
2013-03-27 02:12:00,30.0,26.0,30.31,NW,304,0.0,0.0,84,0.00,,,0.00,,2013-03-27 06:12:00,
2013-03-27 02:22:00,30.0,25.0,30.31,NW,304,0.0,0.0,82,0.00,,,0.00,,2013-03-27 06:22:00,
2013-03-27 02:32:00,31.0,26.0,30.31,NW,304,0.0,0.0,83,0.00,,,0.00,,2013-03-27 06:32:00,
2013-03-27 02:42:00,31.0,26.0,30.31,NW,304,0.0,0.0,83,0.00,,,0.00,,2013-03-27 06:42:00,
2013-03-27 02:53:00,32.0,27.0,30.30,NW,304,0.0,0.0,82,0.00,,,0.00,,2013-03-27 06:53:00,
2013-03-27 03:02:00,31.0,26.0,30.30,NW,304,0.0,0.0,83,0.00,,,0.00,,2013-03-27 07:02:00,
2013-03-27 03:12:00,31.0,26.0,30.30,NW,304,0.0,0.0,83,0.00,,,0.00,,2013-03-27 07:12:00,
2013-03-27 03:22:00,31.0,26.0,30.30,NW,304,0.0,0.0,81,0.00,,,0.00,,2013-03-27 07:22:00,
2013-03-27 03:32:00,31.0,26.0,30.30,NW,304,0.0,0.0,81,0.00,,,0.00,,2013-03-27 07:32:00,
2013-03-27 03:42:00,31.0,26.0,30.30,NW,304,0.0,0.0,81,0.00,,,0.00,,2013-03-27 07:42:00,
2013-03-27 03:53:00,31.0,26.0,30.29,NW,304,0.0,0.0,81,0.00,,,0.00,,2013-03-27 07:53:00,
2013-03-27 04:02:00,29.0,25.0,30.29,NW,304,0.0,0.0,85,0.00,,,0.00,,2013-03-27 08:02:00,
2013-03-27 04:12:00,29.0,25.0,30.29,NW,304,0.0,0.0,85,0.00,,,0.00,,2013-03-27 08:12:00,
2013-03-27 04:22:00,28.0,25.0,30.29,NW,304,0.0,0.0,87,0.00,,,0.00,,2013-03-27 08:22:00,
2013-03-27 04:32:00,28.0,25.0,30.29,NW,304,0.0,0.0,88,0.00,,,0.00,,2013-03-27 08:32:00,
2013-03-27 04:43:00,28.0,25.0,30.29,NW,304,0.0,0.0,88,0.00,,,0.00,,2013-03-27 08:43:00,
2013-03-27 04:52:00,29.0,26.0,30.29,NW,304,0.0,0.0,87,0.00,,,0.00,,2013-03-27 08:52:00,
2013-03-27 05:02:00,29.0,26.0,30.29,NW,304,0.0,0.0,88,0.00,,,0.00,,2013-03-27 09:02:00,
2013-03-27 05:12:00,29.0,26.0,30.29,NW,304,0.0,0.0,88,0.00,,,0.00,,2013-03-27 09:12:00,
2013-03-27 05:22:00,29.0,26.0,30.30,NW,304,0.0,0.0,88,0.00,,,0.00,,2013-03-27 09:22:00,
2013-03-27 05:33:00,29.0,26.0,30.30,NW,304,0.0,0.0,88,0.00,,,0.00,,2013-03-27 09:33:00,
2013-03-27 05:42:00,29.0,26.0,30.30,NW,304,0.0,0.0,88,0.00,,,0.00,,2013-03-27 09:42:00,
2013-03-27 05:52:00,29.0,25.0,30.30,NW,304,0.0,0.0,84,0.00,,,0.00,,2013-03-27 09:52:00,
2013-03-27 06:02:00,28.0,25.0,30.31,NW,304,0.0,0.0,88,0.00,,,0.00,,2013-03-27 10:02:00,
2013-03-27 06:12:00,28.0,25.0,30.31,NW,304,0.0,0.0,88,0.00,,,0.00,,2013-03-27 10:12:00,
2013-03-27 06:23:00,29.0,26.0,30.31,NW,304,0.0,0.0,88,0.00,,,0.00,,2013-03-27 10:23:00,
2013-03-27 06:32:00,30.0,26.0,30.31,NW,304,0.0,0.0,84,0.00,,,0.00,,2013-03-27 10:32:00,
2013-03-27 06:42:00,30.0,26.0,30.31,NW,304,0.0,0.0,84,0.00,,,0.00,,2013-03-27 10:42:00,
2013-03-27 06:53:00,30.0,25.0,30.31,NW,304,0.0,0.0,81,0.00,,,0.00,,2013-03-27 10:53:00,
2013-03-27 07:02:00,30.0,25.0,30.32,NW,304,0.0,0.0,82,0.00,,,0.00,,2013-03-27 11:02:00,
2013-03-27 07:12:00,30.0,25.0,30.32,NW,304,0.0,0.0,82,0.00,,,0.00,,2013-03-27 11:12:00,
2013-03-27 07:22:00,28.0,24.0,30.33,NW,304,0.0,0.0,84,0.00,,,0.00,,2013-03-27 11:22:00,
2013-03-27 07:32:00,28.0,24.0,30.33,NW,304,0.0,0.0,85,0.00,,,0.00,,2013-03-27 11:32:00,
2013-03-27 07:42:00,28.0,24.0,30.33,NW,304,0.0,0.0,85,0.00,,,0.00,,2013-03-27 11:42:00,
2013-03-27 07:53:00,27.0,23.0,30.34,NW,304,0.0,0.0,85,0.00,,,0.00,,2013-03-27 11:53:00,
2013-03-27 08:02:00,28.0,24.0,30.33,NW,304,0.0,0.0,86,0.00,,,0.00,,2013-03-27 12:02:00,
2013-03-27 08:12:00,28.0,24.0,30.33,NW,304,0.0,0.0,86,0.00,,,0.00,,2013-03-27 12:12:00,
2013-03-27 08:23:00,28.0,25.0,30.34,NW,304,0.0,0.0,87,0.00,,,0.00,,2013-03-27 12:23:00,
2013-03-27 08:32:00,29.0,25.0,30.34,NW,304,0.0,0.0,84,0.00,,,0.00,,2013-03-27 12:32:00,
2013-03-27 08:43:00,29.0,25.0,30.34,NW,304,0.0,0.0,84,0.00,,,0.00,,2013-03-27 12:43:00,
2013-03-27 08:52:00,29.0,25.0,30.35,NW,304,0.0,0.0,85,0.00,,,0.00,,2013-03-27 12:52:00,
2013-03-27 09:02:00,30.0,26.0,30.35,NW,304,0.0,0.0,84,0.00,,,0.00,,2013-03-27 13:02:00,
2013-03-27 09:12:00,30.0,26.0,30.35,NW,304,0.0,0.0,84,0.00,,,0.00,,2013-03-27 13:12:00,
2013-03-27 09:22:00,31.0,26.0,30.36,NW,304,0.0,0.0,82,0.00,,,0.00,,2013-03-27 13:22:00,
2013-03-27 09:32:00,32.0,27.0,30.35,NW,304,0.0,0.0,82,0.00,,,0.00,,2013-03-27 13:32:00,
2013-03-27 09:42:00,32.0,27.0,30.35,NW,304,0.0,0.0,82,0.00,,,0.00,,2013-03-27 13:42:00,
2013-03-27 09:53:00,33.0,28.0,30.36,NW,304,0.0,0.0,80,0.00,,,0.00,,2013-03-27 13:53:00,
2013-03-27 10:02:00,34.0,28.0,30.36,NW,304,0.0,1.0,78,0.00,,,0.00,,2013-03-27 14:02:00,
2013-03-27 10:12:00,34.0,28.0,30.36,NW,304,0.0,1.0,78,0.00,,,0.00,,2013-03-27 14:12:00,
2013-03-27 10:22:00,36.0,28.0,30.36,NW,309,0.0,1.0,71,0.00,,,0.00,,2013-03-27 14:22:00,
2013-03-27 10:32:00,37.0,27.0,30.36,NW,309,0.0,1.0,68,0.00,,,0.00,,2013-03-27 14:32:00,
2013-03-27 10:42:00,37.0,27.0,30.36,NW,309,0.0,1.0,68,0.00,,,0.00,,2013-03-27 14:42:00,
2013-03-27 10:52:00,38.0,27.0,30.37,NW,318,1.0,2.0,63,0.00,,,0.00,,2013-03-27 14:52:00,
2013-03-27 11:02:00,38.0,25.0,30.37,NW,316,4.0,10.0,60,0.00,,,0.00,,2013-03-27 15:02:00,
2013-03-27 11:12:00,38.0,25.0,30.37,NW,316,4.0,10.0,60,0.00,,,0.00,,2013-03-27 15:12:00,
2013-03-27 11:22:00,39.0,26.0,30.37,WNW,291,3.0,10.0,60,0.00,,,0.00,,2013-03-27 15:22:00,
2013-03-27 11:33:00,40.0,27.0,30.37,WNW,294,1.0,4.0,60,0.00,,,0.00,,2013-03-27 15:33:00,
2013-03-27 11:42:00,40.0,27.0,30.37,WNW,294,1.0,4.0,60,0.00,,,0.00,,2013-03-27 15:42:00,
2013-03-27 11:53:00,41.0,27.0,30.37,NNW,333,3.0,8.0,56,0.00,,,0.00,,2013-03-27 15:53:00,
2013-03-27 12:03:00,41.0,27.0,30.37,NNW,334,6.0,12.0,58,0.00,,,0.00,,2013-03-27 16:03:00,
2013-03-27 12:13:00,41.0,27.0,30.37,NNW,334,6.0,12.0,58,0.00,,,0.00,,2013-03-27 16:13:00,
2013-03-27 12:22:00,42.0,27.0,30.37,West,279,1.0,5.0,54,0.00,,,0.00,,2013-03-27 16:22:00,
2013-03-27 12:32:00,44.0,27.0,30.36,NW,317,2.0,8.0,50,0.00,,,0.00,,2013-03-27 16:32:00,
2013-03-27 12:42:00,44.0,27.0,30.36,NW,317,2.0,8.0,50,0.00,,,0.00,,2013-03-27 16:42:00,
2013-03-27 12:52:00,44.0,26.0,30.36,NW,304,2.0,12.0,49,0.00,,,0.00,,2013-03-27 16:52:00,
2013-03-27 13:03:00,44.0,26.0,30.35,West,279,2.0,6.0,49,0.00,,,0.00,,2013-03-27 17:03:00,
2013-03-27 13:12:00,44.0,26.0,30.35,West,279,2.0,6.0,49,0.00,,,0.00,,2013-03-27 17:12:00,
2013-03-27 13:22:00,45.0,25.0,30.35,West,278,2.0,11.0,46,0.00,,,0.00,,2013-03-27 17:22:00,
2013-03-27 13:32:00,46.0,25.0,30.35,North,11,1.0,6.0,44,0.00,,,0.00,,2013-03-27 17:32:00,
2013-03-27 13:44:00,46.0,25.0,30.35,North,11,1.0,6.0,44,0.00,,,0.00,,2013-03-27 17:44:00,
2013-03-27 13:52:00,46.0,26.0,30.35,NW,304,4.0,10.0,46,0.00,,,0.00,,2013-03-27 17:52:00,
2013-03-27 14:02:00,47.0,27.0,30.34,West,277,4.0,11.0,45,0.00,,,0.00,,2013-03-27 18:02:00,
2013-03-27 14:12:00,47.0,27.0,30.34,West,277,4.0,11.0,45,0.00,,,0.00,,2013-03-27 18:12:00,
2013-03-27 14:23:00,48.0,25.0,30.34,North,9,2.0,8.0,40,0.00,,,0.00,,2013-03-27 18:23:00,
2013-03-27 14:32:00,48.0,26.0,30.33,WNW,298,4.0,10.0,42,0.00,,,0.00,,2013-03-27 18:32:00,
2013-03-27 14:42:00,48.0,26.0,30.33,WNW,298,4.0,10.0,42,0.00,,,0.00,,2013-03-27 18:42:00,
2013-03-27 14:53:00,49.0,25.0,30.33,WNW,286,4.0,8.0,39,0.00,,,0.00,,2013-03-27 18:53:00,
2013-03-27 15:02:00,48.0,23.0,30.32,WNW,292,1.0,7.0,37,0.00,,,0.00,,2013-03-27 19:02:00,
2013-03-27 15:12:00,48.0,23.0,30.32,WNW,292,1.0,7.0,37,0.00,,,0.00,,2013-03-27 19:12:00,
2013-03-27 15:22:00,50.0,24.0,30.32,North,351,2.0,5.0,36,0.00,,,0.00,,2013-03-27 19:22:00,
2013-03-27 15:32:00,50.0,26.0,30.31,NW,309,4.0,10.0,39,0.00,,,0.00,,2013-03-27 19:32:00,
2013-03-27 15:42:00,50.0,26.0,30.31,NW,309,4.0,10.0,39,0.00,,,0.00,,2013-03-27 19:42:00,
2013-03-27 15:52:00,49.0,23.0,30.30,WNW,302,3.0,7.0,36,0.00,,,0.00,,2013-03-27 19:52:00,
2013-03-27 16:02:00,50.0,25.0,30.29,WNW,292,2.0,8.0,38,0.00,,,0.00,,2013-03-27 20:02:00,
2013-03-27 16:12:00,50.0,25.0,30.29,WNW,292,2.0,8.0,38,0.00,,,0.00,,2013-03-27 20:12:00,
2013-03-27 16:22:00,51.0,23.0,30.29,NNW,329,3.0,6.0,33,0.00,,,0.00,,2013-03-27 20:22:00,
2013-03-27 16:32:00,51.0,28.0,30.29,West,281,1.0,5.0,40,0.00,,,0.00,,2013-03-27 20:32:00,
2013-03-27 16:42:00,51.0,28.0,30.29,West,281,1.0,5.0,40,0.00,,,0.00,,2013-03-27 20:42:00,
2013-03-27 16:52:00,51.0,21.0,30.29,West,276,3.0,10.0,31,0.00,,,0.00,,2013-03-27 20:52:00,
2013-03-27 17:02:00,52.0,24.0,30.28,WNW,298,5.0,10.0,33,0.00,,,0.00,,2013-03-27 21:02:00,
2013-03-27 17:12:00,52.0,24.0,30.28,WNW,298,5.0,10.0,33,0.00,,,0.00,,2013-03-27 21:12:00,
2013-03-27 17:22:00,51.0,24.0,30.28,West,270,3.0,9.0,34,0.00,,,0.00,,2013-03-27 21:22:00,
2013-03-27 17:32:00,52.0,27.0,30.28,NNW,330,2.0,9.0,37,0.00,,,0.00,,2013-03-27 21:32:00,
2013-03-27 17:43:00,52.0,27.0,30.28,NNW,330,2.0,9.0,37,0.00,,,0.00,,2013-03-27 21:43:00,
2013-03-27 17:52:00,52.0,25.0,30.28,NNW,331,3.0,5.0,34,0.00,,,0.00,,2013-03-27 21:52:00,
2013-03-27 18:03:00,52.0,23.0,30.28,WNW,294,3.0,7.0,32,0.00,,,0.00,,2013-03-27 22:03:00,
2013-03-27 18:12:00,52.0,23.0,30.28,WNW,294,3.0,7.0,32,0.00,,,0.00,,2013-03-27 22:12:00,
2013-03-27 18:23:00,52.0,25.0,30.28,NW,314,3.0,10.0,34,0.00,,,0.00,,2013-03-27 22:23:00,
2013-03-27 18:33:00,52.0,23.0,30.28,NW,323,2.0,5.0,32,0.00,,,0.00,,2013-03-27 22:33:00,
2013-03-27 18:42:00,52.0,23.0,30.28,NW,323,2.0,5.0,32,0.00,,,0.00,,2013-03-27 22:42:00,
2013-03-27 18:53:00,52.0,24.0,30.27,NNW,334,1.0,5.0,33,0.00,,,0.00,,2013-03-27 22:53:00,
2013-03-27 19:02:00,51.0,22.0,30.28,NW,319,1.0,5.0,32,0.00,,,0.00,,2013-03-27 23:02:00,
2013-03-27 19:12:00,51.0,22.0,30.28,NW,319,1.0,5.0,32,0.00,,,0.00,,2013-03-27 23:12:00,
2013-03-27 19:22:00,50.0,22.0,30.28,NNW,343,3.0,7.0,33,0.00,,,0.00,,2013-03-27 23:22:00,
2013-03-27 19:32:00,49.0,23.0,30.28,NW,318,1.0,5.0,36,0.00,,,0.00,,2013-03-27 23:32:00,
2013-03-27 19:42:00,49.0,23.0,30.28,NW,318,1.0,5.0,36,0.00,,,0.00,,2013-03-27 23:42:00,
2013-03-27 19:52:00,48.0,23.0,30.28,NW,304,0.0,4.0,37,0.00,,,0.00,,2013-03-27 23:52:00,
2013-03-27 20:02:00,47.0,25.0,30.28,NW,304,1.0,2.0,41,0.00,,,0.00,,2013-03-28 00:02:00,
2013-03-27 20:12:00,47.0,25.0,30.28,NW,304,1.0,2.0,41,0.00,,,0.00,,2013-03-28 00:12:00,
2013-03-27 20:22:00,46.0,24.0,30.29,NW,309,0.0,2.0,41,0.00,,,0.00,,2013-03-28 00:22:00,
2013-03-27 20:33:00,44.0,25.0,30.29,NW,309,0.0,1.0,47,0.00,,,0.00,,2013-03-28 00:33:00,
2013-03-27 20:43:00,44.0,25.0,30.29,NW,309,0.0,1.0,47,0.00,,,0.00,,2013-03-28 00:43:00,
2013-03-27 20:52:00,43.0,24.0,30.29,NW,309,0.0,1.0,47,0.00,,,0.00,,2013-03-28 00:52:00,
2013-03-27 21:02:00,43.0,24.0,30.29,NW,309,0.0,0.0,46,0.00,,,0.00,,2013-03-28 01:02:00,
2013-03-27 21:12:00,43.0,24.0,30.29,NW,309,0.0,0.0,46,0.00,,,0.00,,2013-03-28 01:12:00,
2013-03-27 21:22:00,42.0,23.0,30.30,NW,309,0.0,0.0,47,0.00,,,0.00,,2013-03-28 01:22:00,
2013-03-27 21:32:00,42.0,24.0,30.30,NW,309,0.0,0.0,48,0.00,,,0.00,,2013-03-28 01:32:00,
2013-03-27 21:42:00,42.0,24.0,30.30,NW,309,0.0,0.0,48,0.00,,,0.00,,2013-03-28 01:42:00,
2013-03-27 21:53:00,42.0,23.0,30.30,NW,309,0.0,0.0,47,0.00,,,0.00,,2013-03-28 01:53:00,
2013-03-27 22:02:00,42.0,24.0,30.30,NW,309,0.0,0.0,48,0.00,,,0.00,,2013-03-28 02:02:00,
2013-03-27 22:12:00,42.0,24.0,30.30,NW,309,0.0,0.0,48,0.00,,,0.00,,2013-03-28 02:12:00,
2013-03-27 22:22:00,41.0,23.0,30.31,NW,309,0.0,0.0,49,0.00,,,0.00,,2013-03-28 02:22:00,
2013-03-27 22:32:00,41.0,24.0,30.31,NW,309,0.0,0.0,50,0.00,,,0.00,,2013-03-28 02:32:00,
2013-03-27 22:42:00,41.0,24.0,30.31,NW,309,0.0,0.0,50,0.00,,,0.00,,2013-03-28 02:42:00,
2013-03-27 22:52:00,41.0,24.0,30.31,NW,309,0.0,0.0,50,0.00,,,0.00,,2013-03-28 02:52:00,
2013-03-27 23:02:00,40.0,24.0,30.32,NW,309,0.0,0.0,53,0.00,,,0.00,,2013-03-28 03:02:00,
2013-03-27 23:12:00,40.0,24.0,30.32,NW,309,0.0,0.0,53,0.00,,,0.00,,2013-03-28 03:12:00,
2013-03-27 23:22:00,40.0,25.0,30.32,NW,309,0.0,0.0,54,0.00,,,0.00,,2013-03-28 03:22:00,
2013-03-27 23:33:00,40.0,25.0,30.31,NW,309,0.0,0.0,54,0.00,,,0.00,,2013-03-28 03:33:00,
2013-03-27 23:43:00,40.0,25.0,30.31,NW,309,0.0,0.0,54,0.00,,,0.00,,2013-03-28 03:43:00,
2013-03-27 23:53:00,39.0,24.0,30.31,NW,309,0.0,0.0,55,0.00,,,0.00,,2013-03-28 03:53:00,